CZ-6A DEB, 56678

Orbit data source: Space-Track

CZ-6A DEB, 56678 is space debris in SSO originally from a launch on Fri, 11 Nov 2022 UTC launched from the Taiyaun Space Center, China (TSC). Debris objects in space refer to the collection of defunct objects orbiting the Earth. Examples of debris include non-operational satellites, rocket bodies, and fragments generated from explosions, collisions, or faulty payload assembly.

Loading next visibility...
Identifier
56678, 2022-151AHE
Orbit
SSO
Country
Flag of CNCN / PRC
Related business
Manufacturer
SAST
Mission
Spacecraft
Bus & Motor
Unknown
Mass
Unknown
Launch date (UTC)
2022-11-11 (3 years ago)
Launch vehicle
Unknown
Launch site
Taiyaun Space Center, China (TSC)
Object type
Payload
Rocket body
Debris
Shape & HBR
Unknown shape, 0.1 m
Radar Cross Section
Small (<0.1 m²)

Expand to show TLE details & history
Last TLE update: 1 week ago

TLE from 1 week ago
0 CZ-6A DEB
1 56678U 22151AHE 25343.26137537  .00001896  00000-0  10436-2 0  9994
2 56678  98.8289 338.7978 0060792 175.9081 184.2600 14.11884790135078
Epoch: 2025-12-09T06:16Z
TLE epoch observation values (Epoch: 2025-12-09T06:16:22.831Z)
Latitude
-0.00005°
Longitude
166.45409°
Altitude
899.677 km
Speed
7.38 km/s
True Right ascension
22h 35m 11s
True Declination
0° 00' 00"
Sunlit
Object was in daylight at epoch
Visualization orbit readout
Latitude
Unknown
Longitude
Unknown
Altitude
Unknown
Speed
Unknown
Apparent Right ascension
Unknown
Apparent Declination
Unknown
Sunlit
N/A
Visualization observer readout
Local Sidereal Time
06:13:43
Azimuth
Unknown
Elevation
Unknown
Doppler factor
Unknown
Orbital elements
Apogee altitude
894.046 km
Perigee altitude
806.162 km
Semi-major axis
7,228.241 km
Eccentricity
0.00608
Inclination
98.8289°
RAAN
338.7978°
Arg. of periapsis
175.9081°
True anomaly
184.20864°
Mean anomaly
184.26°
Eccentric anomaly
184.23428°
Mean motion
3.53178 °/min
Orbital period
101.93 mins
BSTAR
0.0010436
Loading maneuver chart data...
Computing Atmospheric mass density...
Loading historical data...
Loading historical data...
Loading historical data...
Loading historical data...
Loading historical data...
Loading historical data...
Loading historical data...

Documentation

Showing up to 5 results
|